Home   Weather   Oakville   Past weeks

Flag for Canada Past Weather in Oakville, Ontario, Canada — Yesterday and Last 2 Weeks

Now
70 °F

Mild.


Feels Like: 70 °F
Forecast: 64 / 71 °F
Wind: 16 mph from North

Location: Burlington Piers

Current Time: Jul 28, 2017 at 1:01:29 am

Latest Report: Jul 28, 2017 at 12:00 am


Visibility: N/A

Pressure: 29.90 "Hg

Humidity: 70%

Dew Point: 59 °F

Location of OakvilleLocation

Past Weather in Oakville — Graph

°F

Oakville Temperature Yesterday

Maximum temperature yesterday: 73 °F (at 10:00 pm)
Minimum temperature yesterday: 68 °F (at 4:00 am)
Average temperature yesterday: 71 °F

High & Low Weather Summary for the Past Weeks

 TemperatureHumidityPressure
High85 °F (Jul 19, 7:00 pm)100% (Jul 17, 11:00 am)30.22 "Hg (Jul 17, 11:00 am)
Low61 °F (Jul 13, 2:00 pm)36% (Jul 18, 4:00 pm)29.70 "Hg (Jul 24, 4:00 am)
Average70 °F76%29.96 "Hg
* Reported Jul 13 12:00 am — Jul 28 12:00 am, Oakville. Weather by CustomWeather, © 2017

Note: Actual official high and low records may vary slightly from our data, if they occured in-between our weather recording intervals... More about our weather records

Advertising

Oakville Weather History for the Previous 24 Hours

Scroll right to see more
 ConditionsComfort  
Time TempWeatherWind HumidityBarometerVisibility
12:00 am
Fri, Jul 28
70 °FMild.16 mph70%29.90 "HgN/A
11:00 pm
Thu, Jul 27
71 °FMild.14 mph64%29.90 "HgN/A
10:00 pm73 °FMild.10 mph75%29.89 "HgN/A
9:00 pm73 °FMild.7 mph83%29.88 "HgN/A
8:00 pm72 °FMild.3 mph81%29.87 "HgN/A
7:00 pm72 °FMild.5 mph82%29.87 "HgN/A
6:00 pm72 °FMild.8 mph84%29.85 "HgN/A
5:00 pm73 °FMild.15 mph80%29.87 "HgN/A
4:00 pm73 °FMild.9 mph83%29.86 "HgN/A
3:00 pm72 °FMild.10 mph87%29.88 "HgN/A
2:00 pm71 °FMild.8 mph85%29.90 "HgN/A
1:00 pm71 °FMild.6 mph86%29.92 "HgN/A
12:00 pm70 °FMild.8 mph86%29.92 "HgN/A
11:00 am69 °FMild.9 mph91%29.93 "HgN/A
10:00 am69 °FMild.6 mph91%29.94 "HgN/A
9:00 am70 °FMild.5 mph81%29.95 "HgN/A
8:00 am69 °FMild.5 mph87%29.94 "HgN/A
7:00 am68 °FMild.2 mph90%29.96 "HgN/A
6:00 am69 °FMild.3 mph88%29.95 "HgN/A
5:00 am68 °FMild.5 mph85%29.95 "HgN/A
4:00 am68 °FMild.5 mph87%29.95 "HgN/A
3:00 am69 °FMild.5 mph77%29.95 "HgN/A
2:00 am69 °FMild.5 mph75%29.96 "HgN/A
1:00 am69 °FMild.3 mph74%29.98 "HgN/A
Weather by CustomWeather, © 2017

See weather overviewHow to use our weather pages